Home   Weather   Frankfurt   Past weeks
Flag for Germany

Past Weather in Frankfurt, Hesse, Germany — Yesterday and Last 2 Weeks

Now
41 °F

Passing clouds.


Feels Like: 35 °F
Forecast: 47 / 34 °F
Wind: 9 mph from North

Location: Frankfurt-M-Flughafen Airport

Current Time: Mar 30, 2020 at 1:33:45 pm

Latest Report: Mar 30, 2020 at 12:50 pm


Visibility: N/A

Pressure: 30.36 "Hg

Humidity: 28%

Dew Point: 10 °F

Location of FrankfurtLocation

Past Weather in Frankfurt — Graph

°F

Frankfurt Temperature Yesterday

Maximum temperature yesterday: 46 °F (at 12:20 am)
Minimum temperature yesterday: 36 °F (at 7:20 am)
Average temperature yesterday: 42 °F

High & Low Weather Summary for the Past Weeks

 TemperatureHumidityPressure
High64 °F (Mar 16, 4:50 pm)100% (Mar 18, 1:50 am)30.57 "Hg (Mar 18, 1:50 am)
Low27 °F (Mar 23, 6:20 am)16% (Mar 25, 4:50 pm)29.95 "Hg (Mar 15, 5:20 pm)
Average46 °F56%30.25 "Hg
* Reported Mar 15 11:20 am — Mar 30 12:20 pm, Frankfurt. Weather by CustomWeather, © 2020

Note: Actual official high and low records may vary slightly from our data, if they occured in-between our weather recording intervals... More about our weather records

Frankfurt Weather History for the Previous 24 Hours

Scroll right to see more
 ConditionsComfort  
Time TempWeatherWind HumidityBarometerVisibility
12:20 pm
Mon, Mar 30
39 °FPassing clouds.10 mph33%30.39 "HgN/A
11:50 am39 °FPassing clouds.10 mph36%30.39 "HgN/A
11:20 am37 °FPassing clouds.12 mph38%30.39 "HgN/A
10:50 am37 °FSunny.14 mph35%30.42 "Hg10 mi
10:20 am37 °FSunny.15 mph38%30.42 "Hg10 mi
9:50 am36 °FPassing clouds.10 mph41%30.42 "HgN/A
9:20 am34 °FSunny.12 mph44%30.42 "Hg10 mi
8:50 am34 °FSunny.10 mph48%30.42 "Hg10 mi
8:20 am32 °FSunny.10 mph51%30.42 "Hg10 mi
7:50 am30 °FSunny.12 mph51%30.42 "Hg10 mi
7:20 am30 °FSunny.13 mph51%30.42 "Hg10 mi
6:50 am30 °FClear.13 mph51%30.42 "Hg10 mi
6:20 am30 °FClear.13 mph51%30.39 "Hg10 mi
5:50 am30 °FClear.13 mph51%30.39 "Hg10 mi
5:20 am32 °FClear.12 mph47%30.39 "Hg10 mi
4:50 am32 °FClear.15 mph51%30.39 "Hg10 mi
4:20 am32 °FPassing clouds.13 mph51%30.39 "HgN/A
3:50 am34 °FPassing clouds.15 mph51%30.39 "HgN/A
3:20 am34 °FPassing clouds.15 mph56%30.39 "HgN/A
2:50 am34 °FPassing clouds.15 mph56%30.39 "HgN/A
2:20 am36 °FPassing clouds.14 mph56%30.39 "HgN/A
1:50 am36 °FPassing clouds.13 mph56%30.42 "HgN/A
1:20 am36 °FPassing clouds.13 mph56%30.39 "HgN/A
12:50 am36 °FPassing clouds.15 mph56%30.39 "HgN/A
12:20 am37 °FPassing clouds.16 mph52%30.39 "HgN/A
11:50 pm
Sun, Mar 29
37 °FPassing clouds.18 mph56%30.39 "HgN/A
11:20 pm37 °FPassing clouds.21 mph60%30.39 "HgN/A
10:50 pm39 °FPassing clouds.23 mph61%30.36 "HgN/A
10:20 pm39 °FPassing clouds.24 mph65%30.36 "HgN/A
9:50 pm39 °FPassing clouds.24 mph65%30.36 "HgN/A
9:20 pm39 °FPassing clouds.23 mph65%30.33 "HgN/A
8:50 pm41 °FLight rain. Passing clouds.24 mph66%30.33 "HgN/A
8:20 pm41 °FLight rain. Passing clouds.21 mph66%30.30 "HgN/A
7:50 pm41 °FLight rain. Broken clouds.21 mph70%30.30 "HgN/A
7:20 pm41 °FLight rain. Partly sunny.18 mph70%30.27 "HgN/A
6:50 pm43 °FLight rain. Broken clouds.22 mph61%30.27 "HgN/A
6:20 pm45 °FScattered clouds.23 mph53%30.24 "HgN/A
5:50 pm46 °FPartly sunny.18 mph43%30.21 "HgN/A
5:20 pm46 °FScattered clouds.21 mph46%30.21 "HgN/A
4:50 pm46 °FScattered clouds.18 mph43%30.21 "HgN/A
4:20 pm46 °FScattered showers. Scattered clouds.18 mph46%30.21 "HgN/A
3:50 pm46 °FScattered clouds.16 mph46%30.21 "HgN/A
3:20 pm46 °FScattered clouds.20 mph50%30.21 "HgN/A
2:50 pm45 °FScattered clouds.17 mph53%30.21 "HgN/A
2:20 pm45 °FBroken clouds.17 mph53%30.21 "HgN/A
1:50 pm45 °FBroken clouds.17 mph53%30.18 "HgN/A
1:20 pm45 °FPartly sunny.13 mph49%30.18 "HgN/A
Weather by CustomWeather, © 2020

See weather overview

Advertising